DW3263 Weather Reports


Display with metric or nautical units.
time (UTC)temp
F
wind
direction
speed
MPH
gust
MPH
rain 1hr
in
rain 24hr
in
rain mn
in
humidity
%
barometer
mb
20260508145520 59 225 5.0 11.0 0.00 0.02 0.00 54 1011.5
20260508144733 58 293 6.0 14.0 0.00 0.02 0.00 52 1011.7
20260508143519 58 225 7.0 15.0 0.00 0.02 0.00 54 1011.8
20260508142520 57 293 6.0 12.0 0.00 0.02 0.00 57 1011.9
20260508141519 56 225 5.0 9.0 0.00 0.02 0.00 58 1011.9
20260508140732 56 203 5.0 12.0 0.00 0.02 0.00 56 1012.0
20260508135518 56 203 5.0 14.0 0.00 0.02 0.00 58 1012.0
20260508134519 55 225 4.0 8.0 0.00 0.02 0.00 58 1012.2
20260508133518 54 225 6.0 12.0 0.00 0.02 0.00 58 1012.2
20260508132519 53 225 5.0 14.0 0.00 0.02 0.00 59 1012.4
20260508131521 51 248 4.0 13.0 0.00 0.02 0.00 62 1012.5
20260508130733 49 293 3.0 6.0 0.00 0.02 0.00 64 1012.6
20260508125942 48 315 1.0 6.0 0.00 0.02 0.00 21 1012.6
20260508124518 47 0.0 0.0 0.00 0.02 0.00 100 1012.5
20260508123520 47 0.0 0.0 0.00 0.02 0.00 100 1012.5
20260508122519 47 0.0 0.0 0.00 0.02 0.00 100 1012.5
20260508121519 46 0.0 0.0 0.00 0.03 0.00 100 1012.5
20260508120518 45 0.0 0.0 0.00 0.03 0.00 100 1012.3
20260508115519 44 0.0 0.0 0.00 0.03 0.00 100 1012.4
20260508115156 43 0.0 0.0 0.00 0.03 0.00 100 1012.2
20260508113519 43 0.0 0.0 0.00 0.03 0.00 100 1012.2
20260508112519 42 0.0 0.0 0.00 0.03 0.00 100 1012.1
20260508111941 42 0.0 0.0 0.00 0.03 0.00 100 1012.0
20260508110942 41 0.0 0.0 0.00 0.03 0.00 100 1011.9
20260508105730 39 0.0 0.0 0.00 0.03 0.00 100 1011.7
20260508104519 38 0.0 0.0 0.00 0.03 0.00 100 1011.5
20260508103731 38 0.0 0.0 0.00 0.03 0.00 100 1011.6
20260508102518 39 0.0 0.0 0.00 0.03 0.00 100 1011.7
20260508101519 39 0.0 0.0 0.00 0.03 0.00 100 1011.4
20260508100519 39 0.0 0.0 0.00 0.03 0.00 100 1011.2
20260508095943 39 0.0 0.0 0.00 0.03 0.00 100 1011.3
20260508094519 39 0.0 0.0 0.00 0.03 0.00 100 1011.2
20260508093732 40 0.0 0.0 0.00 0.03 0.00 100 1011.4
20260508092519 40 0.0 0.0 0.00 0.03 0.00 100 1011.3
20260508091519 40 0.0 0.0 0.00 0.03 0.00 100 1011.4
20260508090730 40 0.0 0.0 0.00 0.03 0.00 100 1011.3
20260508085519 40 0.0 0.0 0.00 0.03 0.00 7 1011.2
20260508084519 41 0.0 0.0 0.00 0.03 0.00 14 1011.3
20260508083519 42 0.0 0.0 0.00 0.03 0.00 25 1011.2
20260508082519 42 0.0 0.0 0.00 0.03 0.00 36 1011.0
20260508081519 43 0.0 1.0 0.00 0.03 0.00 38 1011.1
20260508080731 43 315 1.0 2.0 0.00 0.03 0.00 47 1011.1
20260508075519 44 0.0 0.0 0.00 0.03 0.00 54 1011.0
20260508074519 44 0.0 2.0 0.00 0.03 0.00 59 1011.1
20260508073519 45 0.0 0.0 0.00 0.03 0.00 65 1011.1
20260508072519 47 315 1.0 4.0 0.00 0.03 0.00 65 1011.1
20260508071519 47 315 1.0 3.0 0.00 0.03 0.00 65 1011.0
20260508070519 47 315 1.0 3.0 0.00 0.03 0.00 65 1011.1
20260508065732 47 315 1.0 3.0 0.00 0.03 0.00 65 1010.9
20260508064519 47 0.0 2.0 0.00 0.03 0.00 65 1011.0
20260508063519 48 315 1.0 2.0 0.00 0.04 0.00 64 1010.9
20260508062519 49 0.0 1.0 0.00 0.04 0.00 62 1011.0
20260508061519 50 315 1.0 3.0 0.00 0.04 0.00 61 1010.9
20260508060519 51 315 1.0 5.0 0.00 0.04 0.00 60 1010.9
20260508055519 51 315 3.0 6.0 0.00 0.04 0.00 60 1010.8
20260508054942 51 315 3.0 6.0 0.00 0.04 0.00 59 1010.8
20260508053730 51 315 3.0 5.0 0.00 0.04 0.00 59 1010.8
20260508052519 52 315 4.0 7.0 0.00 0.04 0.00 58 1010.8
20260508051519 52 315 4.0 10.0 0.00 0.04 0.00 57 1010.7
20260508050519 52 315 4.0 7.0 0.00 0.04 0.00 57 1010.7
20260508045519 53 315 4.0 9.0 0.00 0.04 0.00 56 1010.5
20260508044519 53 315 4.0 7.0 0.00 0.04 0.00 55 1010.5
20260508043519 54 315 4.0 9.0 0.00 0.04 0.00 54 1010.3
20260508042519 54 293 4.0 8.0 0.00 0.04 0.00 53 1010.2
20260508041519 55 315 5.0 11.0 0.00 0.04 0.00 53 1010.0
20260508040733 55 315 3.0 9.0 0.00 0.04 0.00 53 1009.9
20260508035518 55 315 5.0 14.0 0.00 0.04 0.04 52 1009.7
20260508034520 55 293 6.0 13.0 0.00 0.04 0.04 52 1009.5
20260508033520 54 315 3.0 7.0 0.00 0.04 0.04 54 1009.2
20260508032519 54 315 3.0 6.0 0.00 0.04 0.04 56 1009.0
20260508031520 53 315 2.0 4.0 0.00 0.04 0.04 61 1008.8
20260508030734 53 315 1.0 3.0 0.00 0.04 0.04 60 1008.7
20260508025519 54 0.0 1.0 0.00 0.04 0.04 58 1008.6
20260508024519 55 0.0 2.0 0.00 0.04 0.04 54 1008.6
20260508023520 55 0.0 2.0 0.00 0.04 0.04 52 1008.4
20260508022520 55 0.0 0.0 0.00 0.04 0.04 53 1008.4
20260508021518 56 0.0 0.0 0.00 0.04 0.04 53 1008.3
20260508020519 56 0.0 2.0 0.00 0.04 0.04 51 1008.2
20260508015520 57 0.0 0.0 0.00 0.04 0.04 51 1008.2
20260508014731 57 0.0 1.0 0.00 0.04 0.04 52 1008.1
20260508013518 57 315 1.0 2.0 0.00 0.04 0.04 50 1008.0
20260508012733 58 0.0 2.0 0.00 0.04 0.04 48 1007.9
20260508011519 58 0.0 2.0 0.00 0.04 0.04 47 1007.7
20260508010730 59 315 1.0 3.0 0.00 0.04 0.04 45 1007.6
20260508005518 59 315 2.0 4.0 0.00 0.04 0.04 44 1007.5
20260508004519 59 315 1.0 3.0 0.00 0.04 0.04 44 1007.4
20260508003728 60 315 2.0 5.0 0.00 0.05 0.04 43 1007.3
20260508002519 60 315 2.0 5.0 0.00 0.05 0.04 44 1007.2
20260508001520 60 315 3.0 7.0 0.00 0.05 0.04 42 1007.0
20260508000519 60 315 4.0 8.0 0.00 0.05 0.04 43 1007.0
20260507235519 60 315 2.0 6.0 0.00 0.05 0.04 43 1007.0
20260507234519 61 315 1.0 3.0 0.00 0.05 0.04 41 1006.9
20260507233519 62 315 2.0 3.0 0.00 0.05 0.04 40 1006.8
20260507232520 62 315 2.0 4.0 0.00 0.05 0.04 40 1006.8
20260507231519 62 315 3.0 5.0 0.00 0.05 0.04 39 1006.6
20260507230731 62 315 4.0 8.0 0.00 0.05 0.04 37 1006.5
20260507225518 63 315 2.0 5.0 0.00 0.05 0.04 38 1006.4
20260507224733 63 315 3.0 8.0 0.00 0.05 0.04 37 1006.4
20260507223518 63 315 3.0 8.0 0.00 0.05 0.04 36 1006.3
20260507222519 63 315 4.0 7.0 0.00 0.05 0.04 36 1006.3
20260507221518 64 293 5.0 9.0 0.00 0.05 0.04 36 1006.3
20260507220519 65 293 6.0 12.0 0.00 0.05 0.04 35 1006.2
20260507215519 65 270 2.0 6.0 0.00 0.05 0.04 34 1006.0
20260507214518 64 270 3.0 8.0 0.00 0.05 0.04 37 1006.2
20260507213519 66 338 2.0 5.0 0.00 0.05 0.04 35 1006.2
20260507212519 65 338 3.0 7.0 0.00 0.05 0.04 35 1006.1
20260507211731 64 270 5.0 12.0 0.01 0.05 0.04 36 1006.2
20260507210518 64 270 1.0 4.0 0.01 0.06 0.04 39 1006.2
20260507205519 63 270 4.0 7.0 0.01 0.06 0.04 38 1006.3
20260507204519 65 270 6.0 10.0 0.01 0.06 0.04 35 1006.3
20260507203519 66 315 4.0 7.0 0.01 0.06 0.04 39 1006.4
20260507202519 65 315 4.0 11.0 0.01 0.06 0.04 39 1006.5
20260507201519 65 293 6.0 22.0 0.00 0.05 0.03 37 1006.5
20260507200518 64 293 3.0 7.0 0.00 0.05 0.03 38 1006.6
20260507195519 63 293 3.0 5.0 0.00 0.05 0.03 38 1006.8
20260507194519 64 270 5.0 9.0 0.00 0.05 0.03 37 1006.7
20260507193518 64 315 4.0 10.0 0.00 0.05 0.03 36 1006.9
20260507192519 64 315 3.0 6.0 0.00 0.05 0.03 38 1007.1
20260507191519 64 315 3.0 7.0 0.00 0.05 0.03 38 1007.3
20260507190519 63 315 4.0 11.0 0.00 0.05 0.03 39 1007.3
20260507185519 63 270 6.0 12.0 0.00 0.05 0.03 39 1007.4
20260507184519 63 315 5.0 12.0 0.00 0.05 0.03 41 1007.4
20260507183732 63 23 2.0 8.0 0.00 0.05 0.03 45 1007.5
20260507182519 62 248 2.0 6.0 0.00 0.05 0.03 41 1007.6
20260507181519 62 315 4.0 12.0 0.01 0.05 0.03 39 1007.7
20260507180519 63 248 2.0 5.0 0.01 0.05 0.03 40 1007.9
20260507175519 62 315 3.0 8.0 0.01 0.05 0.03 41 1008.1
20260507174519 62 315 4.0 9.0 0.01 0.05 0.03 40 1008.2
20260507173519 62 315 4.0 9.0 0.01 0.06 0.03 42 1008.3
20260507172519 61 23 3.0 10.0 0.01 0.06 0.03 40 1008.4
20260507171519 61 315 3.0 7.0 0.00 0.05 0.02 40 1008.7
20260507170519 60 338 2.0 6.0 0.00 0.05 0.02 39 1008.8
20260507165519 60 338 6.0 13.0 0.00 0.05 0.02 39 1009.0
20260507164519 60 68 3.0 11.0 0.00 0.05 0.02 42 1009.0
20260507163519 59 293 5.0 10.0 0.00 0.05 0.02 44 1009.2
20260507162729 59 315 3.0 8.0 0.00 0.05 0.02 42 1009.3
20260507161519 59 315 4.0 10.0 0.00 0.05 0.02 43 1009.5
20260507160731 58 338 6.0 11.0 0.00 0.05 0.02 40 1009.6
20260507155519 59 45 4.0 10.0 0.00 0.05 0.02 40 1009.6
20260507154519 58 270 3.0 9.0 0.00 0.05 0.02 43 1009.6
20260507153941 58 315 4.0 14.0 0.00 0.06 0.02 45 1009.7
20260507152519 57 315 6.0 13.0 0.00 0.06 0.02 44 1010.0
20260507151519 57 315 7.0 16.0 0.00 0.06 0.02 43 1010.1
20260507150519 58 0 3.0 11.0 0.00 0.06 0.02 45 1010.3